Location: Litvinovka
(48.6667°N, 34.3500°E)
Time: 07:42:22
(UTC+00:00)

Cosmos 2026 Rocket - Pass Details

Date: 18 September 2020
Orbit: 940 x 1000 km, 82.9° (Epoch: 21 October)

Event Time Altitude Azimuth Distance (km) Brightness Sun altitude
Rises 18:11:18 0° 350° (N) 3,714 7.6 -23.2°
Reaches altitude 10° 18:13:49 10° 352° (N) 2,768 6.9 -23.5°
Maximum altitude 18:20:13 85° 80° (E) 1,009 3.9 -24.4°
Enters shadow 18:22:22 45° 166° (SSE) 1,333 4.3 -24.7°
